Prescott, AZ

8:11 AM MST on October 16, 2019 (GMT -0700)
Love

Weather History for KPRC - August, 2019

Change the Weather History Date:

Thursday, August 8, 2019

  Actual Average Record
Temperature  
Mean Temperature 75 °F 74 °F  
Max Temperature 90 °F 87 °F 100 °F (2012)
Min Temperature 59 °F 62 °F 54 °F (1988)
Degree Days  
Heating Degree Days 0    
Month to date heating degree days 0  
Since 1 July heating degree days 0  
Cooling Degree Days 10    
Month to date cooling degree days 106  
Year to date cooling degree days 674  
Growing Degree Days 24 (Base 50)    
Moisture  
Dew Point 53 °F    
Average Humidity 51    
Maximum Humidity 93    
Minimum Humidity 24    
Precipitation  
Precipitation 0.00 in 0.09 in 0.68 in (1994)
Month to date precipitation 0.30 0.71  
Year to date precipitation 8.11 7.75  
Sea Level Pressure  
Sea Level Pressure 29.89 in    
Wind  
Wind Speed 6 mph (SW)    
Max Wind Speed 18 mph    
Max Gust Speed 22 mph    
Visibility 10 miles    
Events      
T = Trace of Precipitation, MM = Missing Value Source: NWS Daily Summary

Daily Weather History Graph

Daily Weather History Graph

Search for Another Location

Airport or City:

Astronomy

Aug. 08, 2019 Rise Set
Actual Time 5:44 AM MST 7:25 PM MST
Civil Twilight 5:17 AM MST 7:52 PM MST
Nautical Twilight 4:45 AM MST 8:24 PM MST
Astronomical Twilight 4:10 AM MST 8:59 PM MST
Moon 2:05 PM MST (8/8) 12:07 AM MST (8/8)
Length of Visible Light 14h 34m
Length of Day
13h 40m
First Quarter, 61% of the Moon is Illuminated
Aug 8
First Quarter
Aug 15
Full
Aug 23
Last Quarter
Aug 30
New
Sep 5
First Quarter

Hourly Weather History & Observations

Time (MST) Temp. Dew Point Humidity Pressure Visibility Wind Dir Wind Speed Gust Speed Precip Events Conditions
12:53 AM 63.0 °F 60.1 °F 90% 29.92 in 10.0 mi SSW 8.1 mph - N/A   Clear
1:53 AM 63.0 °F 57.0 °F 81% 29.90 in 10.0 mi SSW 10.4 mph - N/A   Clear
2:53 AM 62.1 °F 55.9 °F 80% 29.89 in 10.0 mi South 8.1 mph - N/A   Clear
3:53 AM 61.0 °F 55.9 °F 83% 29.91 in 10.0 mi WSW 4.6 mph - N/A   Clear
4:53 AM 60.1 °F 55.9 °F 86% 29.94 in 10.0 mi West 3.5 mph - N/A   Clear
5:53 AM 61.0 °F 55.9 °F 83% 29.97 in 10.0 mi West 4.6 mph - N/A   Clear
6:53 AM 62.1 °F 57.0 °F 84% 29.97 in 10.0 mi SW 3.5 mph - N/A   Clear
7:53 AM 66.9 °F 57.9 °F 73% 29.98 in 10.0 mi Calm Calm - N/A   Clear
8:53 AM 72.0 °F 57.9 °F 61% 29.97 in 10.0 mi Calm Calm - N/A   Clear
9:53 AM 79.0 °F 57.0 °F 47% 29.95 in 10.0 mi Calm Calm - N/A   Clear
10:53 AM 82.0 °F 51.1 °F 34% 29.94 in 10.0 mi North 4.6 mph - N/A   Clear
11:53 AM 84.0 °F 51.1 °F 32% 29.92 in 10.0 mi Variable 3.5 mph - N/A   Clear
12:53 PM 84.9 °F 51.1 °F 31% 29.90 in 10.0 mi SSW 3.5 mph - N/A   Clear
1:53 PM 87.1 °F 48.9 °F 27% 29.87 in 10.0 mi North - - N/A   Clear
2:53 PM 89.1 °F 50.0 °F 26% 29.85 in 10.0 mi West 11.5 mph 18.4 mph N/A   Scattered Clouds
3:53 PM 89.1 °F 48.0 °F 24% 29.83 in 10.0 mi West 12.7 mph 21.9 mph N/A   Partly Cloudy
4:53 PM 88.0 °F 46.9 °F 24% 29.83 in 10.0 mi WSW 15.0 mph - N/A   Clear
5:53 PM 88.0 °F 46.0 °F 23% 29.81 in 10.0 mi WSW 13.8 mph 19.6 mph N/A   Clear
6:53 PM 84.9 °F 46.9 °F 27% 29.82 in 10.0 mi WSW 9.2 mph - N/A   Clear
7:53 PM 81.0 °F 48.9 °F 33% 29.84 in 10.0 mi WSW 9.2 mph - N/A   Clear
8:53 PM 77.0 °F 50.0 °F 39% 29.86 in 10.0 mi South 4.6 mph - N/A   Clear
9:53 PM 77.0 °F 51.1 °F 40% 29.86 in 10.0 mi SSW 8.1 mph - N/A   Clear
10:53 PM 73.9 °F 52.0 °F 46% 29.85 in 10.0 mi Calm Calm - N/A   Clear
11:53 PM 73.9 °F 51.1 °F 45% 29.85 in 10.0 mi Calm Calm - N/A   Clear